FW3961 Weather Reports


Display with metric or nautical units.
time (UTC)temp
F
wind
direction
speed
MPH
gust
MPH
rain 1hr
in
rain 24hr
in
rain mn
in
humidity
%
barometer
mb
20260505152924 54 209 1.0 4.0 0.00 0.00 0.00 88 1017.1
20260505152427 54 185 0.0 3.0 0.00 0.00 0.00 89 1017.0
20260505152423 54 188 1.0 4.0 0.00 0.00 0.00 88 1017.1
20260505151418 54 178 0.0 0.0 0.00 0.00 0.00 89 1017.1
20260505150918 54 178 0.0 0.0 0.00 0.00 0.00 90 1017.0
20260505150419 54 177 0.0 0.0 0.00 0.00 0.00 90 1017.1
20260505140412 53 225 0.0 0.0 0.00 0.00 0.00 91 1016.6
20260505124823 53 225 0.0 1.0 0.00 0.00 0.00 90 1016.2
20260505124319 53 225 0.0 1.0 0.00 0.00 0.00 89 1016.3
20260505124313 53 225 0.0 1.0 0.00 0.00 0.00 89 1016.1
20260505123304 53 225 0.0 1.0 0.00 0.00 0.00 90 1016.1
20260505122759 53 225 0.0 1.0 0.00 0.00 0.00 89 1016.2
20260505122253 53 225 0.0 0.0 0.00 0.00 0.00 90 1016.2
20260505121747 53 225 0.0 1.0 0.00 0.00 0.00 90 1016.1
20260505121242 53 225 0.0 1.0 0.00 0.00 0.00 90 1016.1
20260505120734 53 225 0.0 1.0 0.00 0.00 0.00 90 1016.0
20260505120231 53 230 0.0 1.0 0.00 0.00 0.00 89 1016.1
20260505120225 53 230 0.0 1.0 0.00 0.00 0.00 89 1016.0
20260505115217 53 230 0.0 1.0 0.00 0.00 0.00 89 1016.0
20260505114712 53 230 0.0 1.0 0.00 0.00 0.00 89 1016.0
20260505114209 53 230 0.0 1.0 0.00 0.00 0.00 90 1016.1
20260505114203 53 230 0.0 1.0 0.00 0.00 0.00 90 1016.1
20260505113154 53 230 0.0 1.0 0.00 0.00 0.00 90 1016.0
20260505113149 53 228 0.0 1.0 0.00 0.00 0.00 89 1016.1
20260505112141 53 228 0.0 1.0 0.00 0.00 0.00 89 1016.0
20260505111634 53 228 0.0 1.0 0.00 0.00 0.00 89 1016.0
20260505111129 53 228 0.0 2.0 0.00 0.00 0.00 90 1016.0
20260505110625 53 228 0.0 2.0 0.00 0.00 0.00 90 1016.0
20260505110619 53 217 0.0 1.0 0.00 0.00 0.00 89 1015.9
20260505102029 53 186 0.0 2.0 0.00 0.00 0.00 90 1015.8
20260505101523 53 186 0.0 1.0 0.00 0.00 0.00 91 1015.7
20260505101017 53 163 0.0 1.0 0.00 0.00 0.00 91 1015.7
20260505100511 53 163 0.0 1.0 0.00 0.00 0.00 91 1015.7
20260505100006 53 163 0.0 0.0 0.00 0.00 0.00 91 1015.7
20260505095500 53 163 0.0 0.0 0.00 0.00 0.00 91 1015.8
20260505094954 53 162 0.0 2.0 0.00 0.00 0.00 91 1015.7
20260505094447 53 162 1.0 2.0 0.00 0.00 0.00 91 1015.7
20260505093941 53 162 0.0 2.0 0.00 0.00 0.00 91 1015.7
20260505093437 53 162 0.0 2.0 0.00 0.00 0.00 91 1015.7
20260505092938 53 162 0.0 4.0 0.00 0.00 0.00 90 1015.6
20260505092436 53 162 1.0 4.0 0.00 0.00 0.00 91 1015.6
20260505091935 53 163 1.0 3.0 0.00 0.00 0.00 91 1015.6
20260505091437 53 163 1.0 3.0 0.00 0.00 0.00 91 1015.6
20260505090936 53 172 1.0 2.0 0.00 0.00 0.00 91 1015.5
20260505090437 52 172 1.0 2.0 0.00 0.00 0.00 91 1015.5
20260505085936 52 172 1.0 2.0 0.00 0.00 0.00 91 1015.5
20260505085435 52 172 1.0 2.0 0.00 0.00 0.00 91 1015.5
20260505084936 52 234 0.0 1.0 0.00 0.00 0.00 91 1015.6
20260505084436 52 234 0.0 1.0 0.00 0.00 0.00 91 1015.6
20260505083941 52 234 0.0 1.0 0.00 0.00 0.00 91 1015.6
20260505083936 52 234 0.0 1.0 0.00 0.00 0.00 91 1015.6
20260505082936 52 234 0.0 1.0 0.00 0.00 0.00 91 1015.5
20260505082436 52 234 0.0 1.0 0.00 0.00 0.00 91 1015.4
20260505081934 52 234 0.0 1.0 0.00 0.00 0.00 91 1015.3
20260505081431 52 234 0.0 1.0 0.00 0.00 0.00 91 1015.3
20260505080932 52 234 0.0 2.0 0.00 0.00 0.00 91 1015.4
20260505080430 52 234 0.0 2.0 0.00 0.00 0.00 91 1015.2
20260505075933 52 243 0.0 2.0 0.00 0.00 0.00 91 1015.3
20260505075432 52 248 0.0 1.0 0.00 0.00 0.00 91 1015.3
20260505074933 52 248 0.0 3.0 0.00 0.00 0.00 91 1015.2
20260505074433 52 248 0.0 3.0 0.00 0.00 0.00 91 1015.2
20260505073930 52 144 0.0 1.0 0.00 0.00 0.00 91 1015.1
20260505073429 52 144 0.0 1.0 0.00 0.00 0.00 91 1015.2
20260505072931 52 144 0.0 2.0 0.00 0.00 0.00 91 1015.2
20260505072430 51 143 1.0 3.0 0.00 0.00 0.00 91 1015.1
20260505071929 51 155 1.0 3.0 0.00 0.00 0.00 91 1015.1
20260505071431 51 158 1.0 4.0 0.00 0.00 0.00 91 1015.0
20260505070929 51 158 1.0 4.0 0.00 0.00 0.00 90 1014.9
20260505070429 51 165 1.0 4.0 0.00 0.00 0.00 90 1014.9
20260505065926 51 173 1.0 2.0 0.00 0.00 0.00 90 1014.9
20260505065426 52 173 1.0 2.0 0.00 0.00 0.00 90 1014.8
20260505064933 52 173 0.0 2.0 0.00 0.00 0.00 89 1014.8
20260505064929 52 173 0.0 2.0 0.00 0.00 0.00 89 1014.8
20260505064807 52 173 1.0 2.0 0.00 0.00 0.00 89 1014.8
20260505063420 52 173 0.0 2.0 0.00 0.00 0.00 88 1014.7
20260505062917 53 173 1.0 3.0 0.00 0.00 0.00 88 1014.7
20260505062912 53 173 1.0 3.0 0.00 0.00 0.00 87 1014.7
20260505061903 53 180 0.0 2.0 0.00 0.00 0.00 86 1014.6
20260505061356 53 212 0.0 1.0 0.00 0.00 0.00 86 1014.7
20260505060854 53 212 0.0 0.0 0.00 0.00 0.00 85 1014.7
20260505060345 53 212 0.0 1.0 0.00 0.00 0.00 85 1014.7
20260505055840 54 212 0.0 1.0 0.00 0.00 0.00 85 1014.7
20260505055333 54 212 0.0 1.0 0.00 0.00 0.00 85 1014.7
20260505054827 54 212 0.0 0.0 0.00 0.00 0.00 84 1014.7
20260505054320 54 212 0.0 0.0 0.00 0.00 0.00 84 1014.8
20260505053813 54 212 0.0 0.0 0.00 0.00 0.00 84 1014.8
20260505053308 54 212 0.0 0.0 0.00 0.00 0.00 84 1014.8
20260505052801 54 212 0.0 1.0 0.00 0.00 0.00 84 1014.7
20260505052255 55 212 0.0 2.0 0.00 0.00 0.00 84 1014.7
20260505051749 55 212 0.0 2.0 0.00 0.00 0.00 83 1014.7
20260505051243 55 196 0.0 2.0 0.00 0.00 0.00 83 1014.7
20260505050736 55 188 0.0 1.0 0.00 0.00 0.00 83 1014.8
20260505050231 55 207 0.0 2.0 0.00 0.00 0.00 82 1014.6
20260505041638 57 201 1.0 3.0 0.00 0.00 0.00 81 1013.8
20260505041131 58 206 1.0 3.0 0.00 0.00 0.00 81 1013.6
20260505040626 58 207 0.0 3.0 0.00 0.00 0.00 80 1013.5
20260505040120 59 211 0.0 3.0 0.00 0.00 0.00 80 1013.5
20260505035615 59 221 0.0 2.0 0.00 0.00 0.00 79 1013.5
20260505035109 60 227 0.0 2.0 0.00 0.00 0.00 78 1013.5
20260505035104 60 203 1.0 2.0 0.00 0.00 0.00 78 1013.3
20260505034056 60 204 0.0 2.0 0.00 0.00 0.00 77 1013.2
20260505034051 61 205 0.0 3.0 0.00 0.00 0.00 77 1013.1
20260505033043 61 202 1.0 5.0 0.00 0.00 0.00 77 1013.1
20260505032536 62 256 1.0 5.0 0.00 0.00 0.00 76 1013.1
20260505032031 62 224 1.0 3.0 0.00 0.00 0.00 76 1013.0
20260505031528 63 233 1.0 3.0 0.00 0.00 0.00 75 1013.0
20260505031019 63 209 1.0 3.0 0.00 0.00 0.00 74 1012.8
20260505030514 64 228 1.0 3.0 0.00 0.00 0.00 74 1012.6
20260505030007 64 204 1.0 3.0 0.00 0.00 0.00 73 1012.5
20260505030002 64 202 1.0 4.0 0.00 0.00 0.00 73 1012.3
20260505024955 65 241 1.0 4.0 0.00 0.00 0.00 72 1012.3
20260505024449 65 208 1.0 4.0 0.00 0.00 0.00 72 1012.3
20260505023943 66 231 1.0 4.0 0.00 0.00 0.00 72 1012.3
20260505023437 66 242 1.0 6.0 0.00 0.00 0.00 71 1012.2
20260505022931 66 202 2.0 6.0 0.00 0.00 0.00 70 1012.2
20260505022427 67 275 2.0 5.0 0.00 0.00 0.00 69 1012.1
20260505022421 67 214 1.0 4.0 0.00 0.00 0.00 70 1012.2
20260505021413 68 215 1.0 4.0 0.00 0.00 0.00 69 1012.1
20260505020912 68 211 2.0 5.0 0.00 0.00 0.00 69 1012.2
20260505020412 69 219 1.0 5.0 0.00 0.00 0.00 68 1012.1
20260505015912 69 197 1.0 6.0 0.00 0.00 0.00 68 1012.1
20260505015413 69 215 2.0 6.0 0.00 0.00 0.00 67 1012.1
20260505014912 70 156 2.0 5.0 0.00 0.00 0.00 67 1012.1
20260505014419 71 209 2.0 7.0 0.00 0.00 0.00 66 1012.2
20260505014415 71 226 2.0 5.0 0.00 0.00 0.00 66 1012.1
20260505013912 71 187 2.0 7.0 0.00 0.00 0.00 66 1012.1
20260505012912 72 229 2.0 4.0 0.00 0.00 0.00 66 1012.2
20260505012414 72 204 2.0 5.0 0.00 0.00 0.00 66 1012.3
20260505011912 72 197 2.0 5.0 0.00 0.00 0.00 66 1012.3
20260505011412 72 219 2.0 5.0 0.00 0.00 0.00 66 1012.4
20260505010911 73 202 1.0 5.0 0.00 0.00 0.00 65 1012.5
20260505010412 73 218 2.0 5.0 0.00 0.00 0.00 65 1012.3
20260505005910 73 196 2.0 5.0 0.00 0.00 0.00 65 1012.3
20260505005410 73 238 1.0 3.0 0.00 0.00 0.00 65 1012.4
20260505004908 73 271 1.0 3.0 0.00 0.00 0.00 66 1012.5
20260505004406 73 187 1.0 3.0 0.00 0.00 0.00 65 1012.5
20260505003906 73 138 1.0 3.0 0.00 0.00 0.00 65 1012.4
20260505003405 73 209 1.0 4.0 0.00 0.00 0.00 65 1012.4
20260505002906 74 221 1.0 4.0 0.00 0.00 0.00 64 1012.4
20260505002405 74 169 1.0 2.0 0.00 0.00 0.00 65 1012.4
20260505001906 73 164 1.0 4.0 0.00 0.00 0.00 68 1012.4
20260505001405 73 164 1.0 4.0 0.00 0.00 0.00 67 1012.4
20260505000915 73 154 1.0 5.0 0.00 0.00 0.00 64 1012.5
20260505000908 73 197 1.0 4.0 0.00 0.00 0.00 67 1012.4
20260504235905 73 161 1.0 5.0 0.00 0.00 0.00 66 1012.6
20260504235401 73 194 1.0 4.0 0.00 0.00 0.00 66 1012.6
20260504234902 73 169 1.0 3.0 0.00 0.00 0.00 65 1012.6
20260504234412 72 154 1.0 5.0 0.00 0.00 0.00 68 1012.8
20260504234401 73 209 1.0 3.0 0.00 0.00 0.00 64 1012.7
20260504233902 73 204 1.0 4.0 0.00 0.00 0.00 65 1012.7
20260504232904 72 150 1.0 5.0 0.00 0.00 0.00 66 1012.8
20260504232405 72 238 1.0 7.0 0.00 0.00 0.00 67 1013.0
20260504231905 72 119 2.0 7.0 0.00 0.00 0.00 66 1013.1
20260504231401 72 149 1.0 6.0 0.00 0.00 0.00 66 1013.0
20260504230852 71 128 2.0 6.0 0.00 0.00 0.00 66 1013.0
20260504230346 71 124 2.0 5.0 0.00 0.00 0.00 68 1013.2
20260504225843 70 132 2.0 5.0 0.00 0.00 0.00 69 1013.1
20260504225836 70 138 2.0 7.0 0.00 0.00 0.00 68 1013.3
20260504224827 70 123 2.0 7.0 0.00 0.00 0.00 69 1013.3
20260504224321 70 121 2.0 7.0 0.00 0.00 0.00 69 1013.4
20260504223816 71 124 2.0 4.0 0.00 0.00 0.00 68 1013.5
20260504223309 70 150 2.0 7.0 0.00 0.00 0.00 70 1013.5
20260504222804 70 130 2.0 7.0 0.00 0.00 0.00 69 1013.5
20260504222257 70 132 2.0 7.0 0.00 0.00 0.00 69 1013.6
20260504221752 71 131 1.0 7.0 0.00 0.00 0.00 67 1013.7
20260504221245 71 132 1.0 4.0 0.00 0.00 0.00 69 1013.6
20260504220739 70 132 2.0 5.0 0.00 0.00 0.00 68 1013.8
20260504220237 70 119 2.0 7.0 0.00 0.00 0.00 67 1013.8
20260504220230 70 130 2.0 7.0 0.00 0.00 0.00 67 1013.9
20260504215221 70 157 1.0 4.0 0.00 0.00 0.00 70 1014.0
20260504214717 69 221 2.0 5.0 0.00 0.00 0.00 69 1014.0
20260504214211 69 132 2.0 5.0 0.00 0.00 0.00 68 1014.1
20260504213704 69 135 2.0 5.0 0.00 0.00 0.00 70 1014.1
20260504213202 69 128 2.0 4.0 0.00 0.00 0.00 71 1014.2
20260504213155 68 126 2.0 4.0 0.00 0.00 0.00 69 1014.2
20260504212146 68 135 2.0 5.0 0.00 0.00 0.00 70 1014.2
20260504211640 68 139 2.0 5.0 0.00 0.00 0.00 70 1014.3
20260504211134 69 148 1.0 4.0 0.00 0.00 0.00 70 1014.6
20260504210627 68 137 1.0 4.0 0.00 0.00 0.00 71 1014.6
20260504210124 67 136 2.0 8.0 0.00 0.00 0.00 71 1014.6
20260504205615 67 139 2.0 8.0 0.00 0.00 0.00 71 1014.8
20260504205109 67 159 1.0 5.0 0.00 0.00 0.00 72 1014.7
20260504204604 66 150 2.0 7.0 0.00 0.00 0.00 73 1014.7
20260504204058 65 134 2.0 7.0 0.00 0.00 0.00 74 1014.8
20260504203554 65 149 2.0 4.0 0.00 0.00 0.00 75 1014.9
20260504203045 65 129 2.0 5.0 0.00 0.00 0.00 73 1014.9
20260504202540 65 132 2.0 5.0 0.00 0.00 0.00 72 1014.9
20260504202033 66 127 1.0 4.0 0.00 0.00 0.00 73 1014.9
20260504201528 65 140 1.0 3.0 0.00 0.00 0.00 75 1014.8
20260504201021 64 145 2.0 4.0 0.00 0.00 0.00 76 1014.8
20260504200516 63 140 1.0 5.0 0.00 0.00 0.00 74 1014.9
20260504200010 64 140 1.0 5.0 0.00 0.00 0.00 74 1014.9
20260504200002 63 190 1.0 4.0 0.00 0.00 0.00 78 1014.9
20260504195838 64 136 1.0 5.0 0.00 0.00 0.00 76 1014.9
20260504194452 62 117 1.0 4.0 0.00 0.00 0.00 78 1014.8
20260504193950 61 140 2.0 6.0 0.00 0.00 0.00 78 1014.8
20260504193946 61 145 2.0 5.0 0.00 0.00 0.00 78 1014.8
20260504192933 61 134 2.0 6.0 0.00 0.00 0.00 77 1014.8
20260504192427 61 171 1.0 4.0 0.00 0.00 0.00 78 1014.9
20260504191922 61 138 1.0 6.0 0.00 0.00 0.00 78 1015.0
20260504191423 60 238 1.0 6.0 0.00 0.00 0.00 81 1015.0
20260504190921 60 132 2.0 7.0 0.00 0.00 0.00 80 1015.1
20260504190422 59 109 2.0 7.0 0.00 0.00 0.00 80 1015.1
20260504185921 59 165 1.0 4.0 0.00 0.00 0.00 81 1015.1
20260504185420 59 146 1.0 4.0 0.00 0.00 0.00 81 1015.2
20260504184921 59 217 1.0 6.0 0.00 0.00 0.00 81 1015.2
20260504184421 59 140 1.0 6.0 0.00 0.00 0.00 81 1015.2
20260504183921 59 167 1.0 4.0 0.00 0.00 0.00 81 1015.1
20260504183419 59 156 1.0 4.0 0.00 0.00 0.00 82 1015.2
20260504182922 59 254 1.0 4.0 0.00 0.00 0.00 82 1015.1
20260504182419 59 146 1.0 3.0 0.00 0.00 0.00 82 1015.1
20260504181918 58 331 1.0 5.0 0.00 0.00 0.00 83 1015.1
20260504181419 58 131 2.0 5.0 0.00 0.00 0.00 82 1015.0
20260504180916 57 218 2.0 5.0 0.00 0.00 0.00 82 1015.0
20260504180415 58 119 2.0 5.0 0.00 0.00 0.00 82 1015.0
20260504175916 58 147 1.0 5.0 0.00 0.00 0.00 82 1015.0
20260504175409 58 159 1.0 4.0 0.00 0.00 0.00 83 1015.0
20260504174905 58 143 2.0 5.0 0.00 0.00 0.00 82 1015.0
20260504174400 58 125 1.0 5.0 0.00 0.00 0.00 82 1014.9
20260504173852 58 142 1.0 3.0 0.00 0.00 0.00 83 1015.0
20260504173726 57 153 1.0 5.0 0.00 0.00 0.00 84 1014.9
20260504173617 57 197 1.0 3.0 0.00 0.00 0.00 83 1014.9
20260504172345 56 142 3.0 7.0 0.00 0.00 0.00 84 1014.9
20260504171847 57 123 1.0 3.0 0.00 0.00 0.00 84 1015.0
20260504171843 56 137 2.0 7.0 0.00 0.00 0.00 83 1014.9
20260504170842 57 99 1.0 4.0 0.00 0.00 0.00 84 1015.0
20260504170341 57 128 1.0 4.0 0.00 0.00 0.00 84 1015.0
20260504160341 55 132 1.0 5.0 0.00 0.00 0.00 86 1015.0
20260504160336 55 136 2.0 5.0 0.00 0.00 0.00 86 1015.1